Home > Weather > Monrovia > Past weeks

Flag for Liberia Past Weather in Monrovia, Liberia — Yesterday and Last 2 Weeks

Now
79 °F

Partly sunny.


Feels Like: 82 °F
Forecast: N/A
Wind: 6 mph from West

Location: Roberts Field

Current Time: Jul 26, 2016 at 6:17:10 PM

Latest Report: Jul 26, 2016 at 5:30 PM


Visibility: N/A

Pressure: 29.86 "Hg

Humidity: 84%

Dew Point: 73 °F

Location of MonroviaLocation

Past Weather in Monrovia — Graph

°F

Monrovia Temperature Yesterday

Maximum temperature yesterday: 95 °F (at 12:30 AM)
Minimum temperature yesterday: 75 °F (at 6:00 AM)
Average temperature yesterday: 79 °F

High & Low Weather Summary for the Past Weeks

 TemperatureHumidityPressure
High95 °F (Jul 25, 12:30 AM)94% (Jul 11, 6:30 PM)30.01 "Hg (Jul 11, 6:30 PM)
Low72 °F (Jul 13, 5:30 AM)50% (Jul 25, 12:30 AM)29.86 "Hg (Jul 15, 3:00 PM)
Average78 °F86%29.94 "Hg
* Reported Jul 11 5:00 PM — Jul 26 5:00 PM, Monrovia, Weather by CustomWeather, © 2016

Note: Actual official high and low records may vary slightly from our data, if they occured in-between our weather recording intervals... More about our weather records

Advertising

Monrovia Weather History for the Previous 24 Hours

Scroll right to see more
 ConditionsComfort  
Time TempWeatherWind HumidityBarometerVisibility
5:00 PM
Tue, Jul 26
79 °FPartly sunny.9 mph84%29.86 "HgN/A
4:30 PM81 °FPartly sunny.16 mph84%29.86 "HgN/A
4:00 PM82 °FPartly sunny.18 mph79%29.86 "HgN/A
3:30 PM82 °FPartly sunny.15 mph79%29.86 "HgN/A
3:00 PM82 °FPartly sunny.12 mph79%29.89 "HgN/A
2:30 PM82 °FPartly sunny.9 mph79%29.89 "HgN/A
2:00 PM82 °FPartly sunny.8 mph79%29.89 "HgN/A
1:00 PM82 °FPartly sunny.6 mph79%29.92 "HgN/A
12:00 PM82 °FPartly sunny.5 mph79%29.95 "HgN/A
11:30 AM81 °FPartly sunny.No wind84%29.95 "HgN/A
11:00 AM81 °FPartly sunny.No wind84%29.98 "HgN/A
10:30 AM81 °FPartly sunny.No wind84%29.98 "HgN/A
10:00 AM77 °FPartly sunny.No wind94%29.95 "HgN/A
8:30 AM77 °FLight rain. Partly sunny.No wind94%29.95 "Hg5 mi
8:00 AM75 °FLight rain. Partly sunny.No wind94%29.95 "Hg5 mi
7:30 AM75 °FLight rain. Passing clouds.No wind94%29.95 "Hg5 mi
7:00 AM75 °FLight rain. Passing clouds.No wind94%29.95 "Hg4 mi
6:30 AM75 °FLight rain. Passing clouds.No wind94%29.92 "Hg5 mi
6:00 AM75 °FPassing clouds.No wind94%29.92 "Hg6 mi
5:30 AM75 °FPassing clouds.No wind94%29.92 "Hg6 mi
5:00 AM75 °FLight rain. Passing clouds.No wind94%29.92 "Hg4 mi
4:30 AM75 °FLight rain. Partly cloudy.No wind94%29.92 "Hg2 mi
4:00 AM75 °FLight rain. Partly cloudy.No wind94%29.89 "Hg3 mi
3:00 AM75 °FPassing clouds.No wind94%29.92 "HgN/A
12:30 AM75 °FPassing clouds.No wind94%29.95 "HgN/A
12:00 AM75 °FPassing clouds.No wind94%29.95 "HgN/A
11:30 PM
Mon, Jul 25
77 °FPassing clouds.No wind94%29.95 "HgN/A
11:00 PM77 °FPassing clouds.No wind94%29.95 "HgN/A
10:30 PM77 °FPassing clouds.No wind94%29.95 "HgN/A
10:00 PM77 °FPassing clouds.No wind94%29.95 "HgN/A
9:30 PM77 °FPassing clouds.No wind94%29.95 "HgN/A
8:30 PM77 °FPassing clouds.No wind94%29.92 "HgN/A
8:00 PM77 °FPassing clouds.No wind94%29.92 "HgN/A
7:30 PM77 °FPartly sunny.No wind94%29.89 "HgN/A
7:00 PM77 °FPartly sunny.No wind94%29.89 "HgN/A
6:30 PM79 °FPartly sunny.No wind84%29.89 "HgN/A
6:00 PM79 °FPartly sunny.No wind84%29.89 "HgN/A
Weather by CustomWeather, © 2016

See weather overviewHow to use our weather pages